Time,TemperatureF,DewpointF,PressureIn,WindDirection,WindDirectionDegrees,WindSpeedMPH,WindSpeedGustMPH,Humidity,HourlyPrecipIn,Conditions,Clouds,dailyrainin,SoftwareType,DateUTC
2013-05-03 00:01:00,62.4,44.5,30.16,South,180,0.0,6.9,53,0.00,,,0.00,WUHU21623XXSP,2013-05-03 04:01:00,
2013-05-03 00:06:00,62.2,44.3,30.16,NNE,22,7.4,7.4,52,0.00,,,0.00,WUHU21623XXSP,2013-05-03 04:06:00,
2013-05-03 00:11:00,62.1,44.8,30.16,South,180,0.0,7.4,53,0.00,,,0.00,WUHU21623XXSP,2013-05-03 04:11:00,
2013-05-03 00:16:00,61.9,44.5,30.15,South,180,3.4,6.5,53,0.00,,,0.00,WUHU21623XXSP,2013-05-03 04:16:00,
2013-05-03 00:21:00,61.7,44.3,30.15,South,180,0.9,7.4,53,0.00,,,0.00,WUHU21623XXSP,2013-05-03 04:21:00,
2013-05-03 00:26:00,61.5,44.2,30.15,South,180,2.5,7.8,53,0.00,,,0.00,WUHU21623XXSP,2013-05-03 04:26:00,
2013-05-03 00:31:00,61.5,44.2,30.16,NNE,22,5.6,7.8,53,0.00,,,0.00,WUHU21623XXSP,2013-05-03 04:31:00,
2013-05-03 00:36:00,61.3,44.0,30.15,NNE,22,6.5,6.5,53,0.00,,,0.00,WUHU21623XXSP,2013-05-03 04:36:00,
2013-05-03 00:41:00,61.2,43.5,30.15,NE,45,4.7,6.5,52,0.00,,,0.00,WUHU21623XXSP,2013-05-03 04:41:00,
2013-05-03 00:46:00,61.0,43.2,30.15,NNE,22,4.9,5.4,52,0.00,,,0.00,WUHU21623XXSP,2013-05-03 04:46:00,
2013-05-03 00:51:00,61.0,43.2,30.15,South,180,4.3,5.4,52,0.00,,,0.00,WUHU21623XXSP,2013-05-03 04:51:00,
2013-05-03 00:56:00,61.0,43.2,30.15,South,180,3.6,4.3,52,0.00,,,0.00,WUHU21623XXSP,2013-05-03 04:56:00,
2013-05-03 01:01:00,60.6,43.1,30.15,South,180,3.6,3.8,52,0.00,,,0.00,WUHU21623XXSP,2013-05-03 05:01:00,
2013-05-03 01:06:00,60.6,42.4,30.14,South,180,3.8,3.8,51,0.00,,,0.00,WUHU21623XXSP,2013-05-03 05:06:00,
2013-05-03 01:11:00,60.6,42.4,30.15,South,180,4.5,4.5,51,0.00,,,0.00,WUHU21623XXSP,2013-05-03 05:11:00,
2013-05-03 01:16:00,60.6,42.4,30.15,South,180,8.1,8.1,51,0.00,,,0.00,WUHU21623XXSP,2013-05-03 05:16:00,
2013-05-03 01:21:00,60.4,42.2,30.15,SSE,157,2.9,8.1,51,0.00,,,0.00,WUHU21623XXSP,2013-05-03 05:21:00,
2013-05-03 01:26:00,60.4,42.2,30.15,South,180,0.9,3.8,51,0.00,,,0.00,WUHU21623XXSP,2013-05-03 05:26:00,
2013-05-03 01:31:00,60.1,41.9,30.15,South,180,1.3,3.8,51,0.00,,,0.00,WUHU21623XXSP,2013-05-03 05:31:00,
2013-05-03 01:36:00,60.1,41.9,30.15,NNE,22,8.5,8.5,51,0.00,,,0.00,WUHU21623XXSP,2013-05-03 05:36:00,
2013-05-03 01:41:00,60.1,41.4,30.15,NNE,22,0.9,8.5,50,0.00,,,0.00,WUHU21623XXSP,2013-05-03 05:41:00,
2013-05-03 01:46:00,59.9,41.3,30.15,South,180,5.4,8.5,50,0.00,,,0.00,WUHU21623XXSP,2013-05-03 05:46:00,
2013-05-03 01:51:00,59.9,41.3,30.15,South,180,0.0,5.4,50,0.00,,,0.00,WUHU21623XXSP,2013-05-03 05:51:00,
2013-05-03 01:56:00,59.7,41.1,30.15,South,180,3.6,3.6,50,0.00,,,0.00,WUHU21623XXSP,2013-05-03 05:56:00,
2013-05-03 02:01:00,59.7,41.1,30.14,NE,45,1.1,4.5,50,0.00,,,0.00,WUHU21623XXSP,2013-05-03 06:01:00,
2013-05-03 02:06:00,59.5,41.1,30.14,South,180,2.5,4.5,50,0.00,,,0.00,WUHU21623XXSP,2013-05-03 06:06:00,
2013-05-03 02:11:00,59.5,40.9,30.14,NNE,22,4.0,4.0,50,0.00,,,0.00,WUHU21623XXSP,2013-05-03 06:11:00,
2013-05-03 02:16:00,59.5,40.9,30.14,NNE,22,3.8,4.0,50,0.00,,,0.00,WUHU21623XXSP,2013-05-03 06:16:00,
2013-05-03 02:21:00,59.4,40.2,30.14,South,180,3.4,3.8,49,0.00,,,0.00,WUHU21623XXSP,2013-05-03 06:21:00,
2013-05-03 02:26:00,59.4,40.8,30.14,South,180,0.2,3.4,50,0.00,,,0.00,WUHU21623XXSP,2013-05-03 06:26:00,
2013-05-03 02:31:00,59.2,40.6,30.14,SSE,157,5.4,5.4,50,0.00,,,0.00,WUHU21623XXSP,2013-05-03 06:31:00,
2013-05-03 02:36:00,59.2,40.0,30.13,South,180,1.3,5.4,49,0.00,,,0.00,WUHU21623XXSP,2013-05-03 06:36:00,
2013-05-03 02:41:00,59.2,40.0,30.13,South,180,2.5,2.5,49,0.00,,,0.00,WUHU21623XXSP,2013-05-03 06:41:00,
2013-05-03 02:46:00,59.0,40.6,30.13,South,180,3.6,6.7,50,0.00,,,0.00,WUHU21623XXSP,2013-05-03 06:46:00,
2013-05-03 02:51:00,58.8,39.7,30.13,South,180,1.6,6.7,49,0.00,,,0.00,WUHU21623XXSP,2013-05-03 06:51:00,
2013-05-03 02:56:00,58.8,39.7,30.13,NNE,22,5.4,5.4,49,0.00,,,0.00,WUHU21623XXSP,2013-05-03 06:56:00,
2013-05-03 03:01:00,58.8,39.7,30.13,South,180,2.0,6.7,49,0.00,,,0.00,WUHU21623XXSP,2013-05-03 07:01:00,
2013-05-03 03:06:00,58.8,39.7,30.14,South,180,2.2,6.7,49,0.00,,,0.00,WUHU21623XXSP,2013-05-03 07:06:00,
2013-05-03 03:11:00,58.8,39.7,30.13,South,180,1.8,2.2,49,0.00,,,0.00,WUHU21623XXSP,2013-05-03 07:11:00,
2013-05-03 03:16:00,58.8,39.7,30.13,NNE,22,2.9,2.9,49,0.00,,,0.00,WUHU21623XXSP,2013-05-03 07:16:00,
2013-05-03 03:21:00,58.8,39.7,30.12,South,180,1.8,2.9,49,0.00,,,0.00,WUHU21623XXSP,2013-05-03 07:21:00,
2013-05-03 03:26:00,58.8,39.7,30.13,South,180,1.8,1.8,49,0.00,,,0.00,WUHU21623XXSP,2013-05-03 07:26:00,
2013-05-03 03:31:00,58.8,39.7,30.12,South,180,6.5,6.5,49,0.00,,,0.00,WUHU21623XXSP,2013-05-03 07:31:00,
2013-05-03 03:36:00,58.8,39.7,30.13,NNE,22,8.3,8.3,49,0.00,,,0.00,WUHU21623XXSP,2013-05-03 07:36:00,
2013-05-03 03:41:00,58.8,39.7,30.12,South,180,5.6,8.3,49,0.00,,,0.00,WUHU21623XXSP,2013-05-03 07:41:00,
2013-05-03 03:46:00,58.8,39.7,30.12,South,180,4.5,5.6,49,0.00,,,0.00,WUHU21623XXSP,2013-05-03 07:46:00,
2013-05-03 03:51:00,58.8,39.7,30.12,SSE,157,4.0,5.6,49,0.00,,,0.00,WUHU21623XXSP,2013-05-03 07:51:00,
2013-05-03 03:56:00,58.8,39.7,30.12,South,180,0.4,4.0,49,0.00,,,0.00,WUHU21623XXSP,2013-05-03 07:56:00,
2013-05-03 04:01:00,58.6,40.1,30.12,South,180,3.6,4.0,50,0.00,,,0.00,WUHU21623XXSP,2013-05-03 08:01:00,
2013-05-03 04:06:00,58.6,40.1,30.12,NNE,22,0.0,4.0,50,0.00,,,0.00,WUHU21623XXSP,2013-05-03 08:06:00,
2013-05-03 04:11:00,58.5,40.0,30.12,South,180,0.0,3.1,50,0.00,,,0.00,WUHU21623XXSP,2013-05-03 08:11:00,
2013-05-03 04:16:00,58.3,39.8,30.12,NNE,22,4.9,6.3,50,0.00,,,0.00,WUHU21623XXSP,2013-05-03 08:16:00,
2013-05-03 04:21:00,58.3,39.8,30.12,South,180,2.2,6.3,50,0.00,,,0.00,WUHU21623XXSP,2013-05-03 08:21:00,
2013-05-03 04:26:00,57.9,39.5,30.13,South,180,0.7,4.9,50,0.00,,,0.00,WUHU21623XXSP,2013-05-03 08:26:00,
2013-05-03 04:31:00,57.9,39.5,30.13,SSE,157,0.0,4.9,50,0.00,,,0.00,WUHU21623XXSP,2013-05-03 08:31:00,
2013-05-03 04:36:00,57.9,40.0,30.12,SSE,157,0.9,0.9,51,0.00,,,0.00,WUHU21623XXSP,2013-05-03 08:36:00,
2013-05-03 04:41:00,57.9,40.0,30.12,SSE,157,6.9,6.9,51,0.00,,,0.00,WUHU21623XXSP,2013-05-03 08:41:00,
2013-05-03 04:46:00,57.7,39.8,30.12,NNE,22,0.0,6.9,51,0.00,,,0.00,WUHU21623XXSP,2013-05-03 08:46:00,
2013-05-03 04:51:00,57.7,39.8,30.13,NNE,22,0.0,1.3,52,0.00,,,0.00,WUHU21623XXSP,2013-05-03 08:51:00,
2013-05-03 04:56:00,57.6,40.1,30.13,South,180,0.0,0.0,52,0.00,,,0.00,WUHU21623XXSP,2013-05-03 08:56:00,
2013-05-03 05:01:00,57.6,40.1,30.12,South,180,0.0,0.0,52,0.00,,,0.00,WUHU21623XXSP,2013-05-03 09:01:00,
2013-05-03 05:06:00,57.4,39.9,30.12,South,180,3.6,3.6,52,0.00,,,0.00,WUHU21623XXSP,2013-05-03 09:06:00,
2013-05-03 05:11:00,57.4,39.9,30.12,NNE,22,7.2,7.2,53,0.00,,,0.00,WUHU21623XXSP,2013-05-03 09:11:00,
2013-05-03 05:16:00,57.4,40.4,30.12,NNE,22,0.0,7.2,53,0.00,,,0.00,WUHU21623XXSP,2013-05-03 09:16:00,
2013-05-03 05:21:00,57.2,40.4,30.13,NNE,22,0.0,7.2,53,0.00,,,0.00,WUHU21623XXSP,2013-05-03 09:21:00,
2013-05-03 05:26:00,57.0,40.1,30.13,NNE,22,0.0,0.0,53,0.00,,,0.00,WUHU21623XXSP,2013-05-03 09:26:00,
2013-05-03 05:31:00,57.0,40.1,30.13,SSE,157,2.0,2.0,53,0.00,,,0.00,WUHU21623XXSP,2013-05-03 09:31:00,
2013-05-03 05:36:00,57.0,40.1,30.12,South,180,0.7,2.0,53,0.00,,,0.00,WUHU21623XXSP,2013-05-03 09:36:00,
2013-05-03 05:41:00,57.0,40.1,30.13,NNE,22,4.0,4.0,53,0.00,,,0.00,WUHU21623XXSP,2013-05-03 09:41:00,
2013-05-03 05:46:00,57.0,40.1,30.13,SSE,157,2.9,4.0,53,0.00,,,0.00,WUHU21623XXSP,2013-05-03 09:46:00,
2013-05-03 05:51:00,57.0,40.5,30.13,NNE,22,2.7,2.9,54,0.00,,,0.00,WUHU21623XXSP,2013-05-03 09:51:00,
2013-05-03 05:56:00,57.0,40.5,30.13,SSE,157,0.0,4.3,54,0.00,,,0.00,WUHU21623XXSP,2013-05-03 09:56:00,
2013-05-03 06:01:00,56.8,40.4,30.13,NNE,22,0.0,4.3,54,0.00,,,0.00,WUHU21623XXSP,2013-05-03 10:01:00,
2013-05-03 06:06:00,56.8,40.4,30.13,NNE,22,0.0,1.6,55,0.00,,,0.00,WUHU21623XXSP,2013-05-03 10:06:00,
2013-05-03 06:10:00,56.7,40.6,30.14,South,180,0.0,0.0,55,0.00,,,0.00,WUHU21623XXSP,2013-05-03 10:10:00,
2013-05-03 06:15:00,56.5,40.5,30.14,South,180,0.0,0.0,55,0.00,,,0.00,WUHU21623XXSP,2013-05-03 10:15:00,
2013-05-03 06:20:00,56.3,40.3,30.13,South,180,0.0,0.0,55,0.00,,,0.00,WUHU21623XXSP,2013-05-03 10:20:00,
2013-05-03 06:25:00,56.1,40.6,30.14,South,180,0.0,0.0,56,0.00,,,0.00,WUHU21623XXSP,2013-05-03 10:25:00,
2013-05-03 06:30:00,55.9,40.4,30.14,South,180,0.0,0.0,56,0.00,,,0.00,WUHU21623XXSP,2013-05-03 10:30:00,
2013-05-03 06:35:00,55.8,40.2,30.14,NNE,22,0.0,0.0,56,0.00,,,0.00,WUHU21623XXSP,2013-05-03 10:35:00,
2013-05-03 06:40:00,55.8,40.7,30.14,South,180,0.0,0.0,57,0.00,,,0.00,WUHU21623XXSP,2013-05-03 10:40:00,
2013-05-03 06:45:00,55.6,40.5,30.14,NNE,22,0.0,0.0,57,0.00,,,0.00,WUHU21623XXSP,2013-05-03 10:45:00,
2013-05-03 06:50:00,55.4,40.8,30.14,NNE,22,2.9,2.9,58,0.00,,,0.00,WUHU21623XXSP,2013-05-03 10:50:00,
2013-05-03 06:55:00,55.4,40.8,30.14,NNE,22,3.4,3.4,58,0.00,,,0.00,WUHU21623XXSP,2013-05-03 10:55:00,
2013-05-03 07:00:00,55.4,40.8,30.14,South,180,8.1,8.1,58,0.00,,,0.00,WUHU21623XXSP,2013-05-03 11:00:00,
2013-05-03 07:05:00,55.6,41.0,30.14,South,180,8.1,8.1,59,0.00,,,0.00,WUHU21623XXSP,2013-05-03 11:05:00,
2013-05-03 07:10:00,55.6,41.4,30.14,South,180,0.9,8.1,59,0.00,,,0.00,WUHU21623XXSP,2013-05-03 11:10:00,
2013-05-03 07:15:00,56.1,41.5,30.14,South,180,0.0,0.9,58,0.00,,,0.00,WUHU21623XXSP,2013-05-03 11:15:00,
2013-05-03 07:20:00,56.7,42.0,30.14,South,180,3.4,7.4,58,0.00,,,0.00,WUHU21623XXSP,2013-05-03 11:20:00,
2013-05-03 07:25:00,57.0,41.9,30.14,SSE,157,0.4,7.4,57,0.00,,,0.00,WUHU21623XXSP,2013-05-03 11:25:00,
2013-05-03 07:30:00,57.7,42.3,30.14,SSE,157,8.1,8.1,57,0.00,,,0.00,WUHU21623XXSP,2013-05-03 11:30:00,
2013-05-03 07:35:00,58.3,43.1,30.14,South,180,2.5,8.1,57,0.00,,,0.00,WUHU21623XXSP,2013-05-03 11:35:00,
2013-05-03 07:40:00,58.8,42.9,30.14,SSE,157,7.8,7.8,56,0.00,,,0.00,WUHU21623XXSP,2013-05-03 11:40:00,
2013-05-03 07:45:00,59.4,42.6,30.14,South,180,8.3,8.3,55,0.00,,,0.00,WUHU21623XXSP,2013-05-03 11:45:00,
2013-05-03 07:50:00,59.7,43.5,30.14,South,180,2.9,8.3,55,0.00,,,0.00,WUHU21623XXSP,2013-05-03 11:50:00,
2013-05-03 07:55:00,60.3,43.8,30.14,South,180,6.0,8.3,55,0.00,,,0.00,WUHU21623XXSP,2013-05-03 11:55:00,
2013-05-03 08:00:00,61.0,44.2,30.15,SSE,157,2.0,6.0,54,0.00,,,0.00,WUHU21623XXSP,2013-05-03 12:00:00,
2013-05-03 08:05:00,61.2,44.3,30.15,SSE,157,5.8,5.8,54,0.00,,,0.00,WUHU21623XXSP,2013-05-03 12:05:00,
2013-05-03 08:10:00,61.5,44.2,30.14,South,180,6.9,6.9,53,0.00,,,0.00,WUHU21623XXSP,2013-05-03 12:10:00,
2013-05-03 08:15:00,62.2,44.5,30.15,SSE,157,4.5,6.9,53,0.00,,,0.00,WUHU21623XXSP,2013-05-03 12:15:00,
2013-05-03 08:20:00,62.4,45.0,30.14,SSE,157,4.7,4.7,53,0.00,,,0.00,WUHU21623XXSP,2013-05-03 12:20:00,
2013-05-03 08:25:00,62.8,45.3,30.14,SSE,157,2.0,4.7,53,0.00,,,0.00,WUHU21623XXSP,2013-05-03 12:25:00,
2013-05-03 08:30:00,63.3,45.8,30.14,NNE,22,7.4,7.4,53,0.00,,,0.00,WUHU21623XXSP,2013-05-03 12:30:00,
2013-05-03 08:35:00,63.7,45.6,30.14,SSE,157,8.3,8.3,52,0.00,,,0.00,WUHU21623XXSP,2013-05-03 12:35:00,
2013-05-03 08:40:00,64.0,46.0,30.14,South,180,1.1,8.3,52,0.00,,,0.00,WUHU21623XXSP,2013-05-03 12:40:00,
2013-05-03 08:45:00,64.6,46.5,30.14,SSE,157,4.0,7.8,52,0.00,,,0.00,WUHU21623XXSP,2013-05-03 12:45:00,
2013-05-03 08:50:00,64.6,46.5,30.14,SSE,157,4.0,7.8,52,0.00,,,0.00,WUHU21623XXSP,2013-05-03 12:50:00,
2013-05-03 08:55:00,64.9,46.8,30.14,South,180,0.0,4.0,52,0.00,,,0.00,WUHU21623XXSP,2013-05-03 12:55:00,
2013-05-03 09:00:00,65.3,47.7,30.14,SSE,157,1.6,3.6,53,0.00,,,0.00,WUHU21623XXSP,2013-05-03 13:00:00,
2013-05-03 09:05:00,65.5,47.4,30.14,South,180,2.9,2.9,52,0.00,,,0.00,WUHU21623XXSP,2013-05-03 13:05:00,
2013-05-03 09:10:00,65.8,47.7,30.14,South,180,8.1,8.1,52,0.00,,,0.00,WUHU21623XXSP,2013-05-03 13:10:00,
2013-05-03 09:15:00,66.0,47.9,30.14,SSE,157,0.0,8.1,52,0.00,,,0.00,WUHU21623XXSP,2013-05-03 13:15:00,
2013-05-03 09:20:00,66.2,48.6,30.14,SSE,157,0.0,6.9,53,0.00,,,0.00,WUHU21623XXSP,2013-05-03 13:20:00,
2013-05-03 09:25:00,66.4,48.3,30.14,SSE,157,8.7,8.7,52,0.00,,,0.00,WUHU21623XXSP,2013-05-03 13:25:00,
2013-05-03 09:30:00,66.6,48.4,30.14,South,180,8.5,8.7,52,0.00,,,0.00,WUHU21623XXSP,2013-05-03 13:30:00,
2013-05-03 09:35:00,66.7,48.6,30.13,SSE,157,8.7,8.7,52,0.00,,,0.00,WUHU21623XXSP,2013-05-03 13:35:00,
2013-05-03 09:40:00,66.9,48.7,30.13,SE,135,5.8,8.7,52,0.00,,,0.00,WUHU21623XXSP,2013-05-03 13:40:00,
2013-05-03 09:45:00,67.1,48.4,30.13,SE,135,7.6,8.5,51,0.00,,,0.00,WUHU21623XXSP,2013-05-03 13:45:00,
2013-05-03 09:50:00,67.3,49.1,30.13,South,180,3.8,8.5,52,0.00,,,0.00,WUHU21623XXSP,2013-05-03 13:50:00,
2013-05-03 09:55:00,67.6,49.4,30.13,SSE,157,7.4,7.8,52,0.00,,,0.00,WUHU21623XXSP,2013-05-03 13:55:00,
2013-05-03 10:00:00,67.8,49.5,30.13,SE,135,8.1,8.1,52,0.00,,,0.00,WUHU21623XXSP,2013-05-03 14:00:00,
2013-05-03 10:05:00,68.2,49.9,30.13,ESE,112,7.8,8.1,52,0.00,,,0.00,WUHU21623XXSP,2013-05-03 14:05:00,
2013-05-03 10:10:00,68.7,49.9,30.13,South,180,9.4,9.4,51,0.00,,,0.00,WUHU21623XXSP,2013-05-03 14:10:00,
2013-05-03 10:15:00,69.1,50.2,30.13,South,180,6.0,9.4,51,0.00,,,0.00,WUHU21623XXSP,2013-05-03 14:15:00,
2013-05-03 10:20:00,69.4,50.5,30.12,South,180,7.6,7.8,51,0.00,,,0.00,WUHU21623XXSP,2013-05-03 14:20:00,
2013-05-03 10:25:00,69.6,50.7,30.13,SSE,157,11.2,11.2,51,0.00,,,0.00,WUHU21623XXSP,2013-05-03 14:25:00,
2013-05-03 10:30:00,69.8,50.9,30.13,SSE,157,0.0,11.2,51,0.00,,,0.00,WUHU21623XXSP,2013-05-03 14:30:00,
2013-05-03 10:35:00,70.2,51.2,30.13,South,180,2.7,7.4,51,0.00,,,0.00,WUHU21623XXSP,2013-05-03 14:35:00,
2013-05-03 10:40:00,70.3,51.4,30.13,SSE,157,1.6,4.7,51,0.00,,,0.00,WUHU21623XXSP,2013-05-03 14:40:00,
2013-05-03 10:45:00,70.7,51.7,30.12,SSE,157,7.6,7.6,51,0.00,,,0.00,WUHU21623XXSP,2013-05-03 14:45:00,
2013-05-03 10:50:00,70.9,51.8,30.13,South,180,4.0,7.6,51,0.00,,,0.00,WUHU21623XXSP,2013-05-03 14:50:00,
2013-05-03 10:55:00,71.2,51.7,30.13,South,180,0.9,8.5,50,0.00,,,0.00,WUHU21623XXSP,2013-05-03 14:55:00,
2013-05-03 11:00:00,71.4,51.8,30.12,SSE,157,9.2,9.2,50,0.00,,,0.00,WUHU21623XXSP,2013-05-03 15:00:00,
2013-05-03 11:05:00,71.8,52.1,30.12,South,180,6.9,9.2,50,0.00,,,0.00,WUHU21623XXSP,2013-05-03 15:05:00,
2013-05-03 11:10:00,72.3,52.0,30.12,SSE,157,8.7,8.7,49,0.00,,,0.00,WUHU21623XXSP,2013-05-03 15:10:00,
2013-05-03 11:15:00,72.9,51.9,30.13,South,180,1.1,9.2,48,0.00,,,0.00,WUHU21623XXSP,2013-05-03 15:15:00,
2013-05-03 11:20:00,72.9,51.9,30.12,South,180,0.0,9.2,48,0.00,,,0.00,WUHU21623XXSP,2013-05-03 15:20:00,
2013-05-03 11:25:00,72.9,52.5,30.12,SE,135,2.7,7.4,49,0.00,,,0.00,WUHU21623XXSP,2013-05-03 15:25:00,
2013-05-03 11:30:00,73.0,52.7,30.12,NNE,22,8.7,8.7,49,0.00,,,0.00,WUHU21623XXSP,2013-05-03 15:30:00,
2013-05-03 11:35:00,73.2,52.8,30.12,ESE,112,9.6,9.6,49,0.00,,,0.00,WUHU21623XXSP,2013-05-03 15:35:00,
2013-05-03 11:40:00,73.4,52.4,30.13,SSE,157,7.4,9.6,48,0.00,,,0.00,WUHU21623XXSP,2013-05-03 15:40:00,
2013-05-03 11:45:00,73.9,52.9,30.12,SE,135,7.4,8.5,48,0.00,,,0.00,WUHU21623XXSP,2013-05-03 15:45:00,
2013-05-03 11:50:00,74.3,52.7,30.12,South,180,7.6,8.5,47,0.00,,,0.00,WUHU21623XXSP,2013-05-03 15:50:00,
2013-05-03 11:55:00,75.0,52.8,30.12,SSE,157,8.1,8.5,46,0.00,,,0.00,WUHU21623XXSP,2013-05-03 15:55:00,
2013-05-03 12:00:00,76.3,53.9,30.12,SSE,157,4.3,8.1,46,0.00,,,0.00,WUHU21623XXSP,2013-05-03 16:00:00,
2013-05-03 12:05:00,77.5,54.4,30.12,SE,135,10.5,10.5,45,0.00,,,0.00,WUHU21623XXSP,2013-05-03 16:05:00,
2013-05-03 12:10:00,78.4,55.3,30.12,SSE,157,1.3,10.5,45,0.00,,,0.00,WUHU21623XXSP,2013-05-03 16:10:00,
2013-05-03 12:15:00,79.3,56.1,30.12,South,180,8.3,8.3,45,0.00,,,0.00,WUHU21623XXSP,2013-05-03 16:15:00,
2013-05-03 12:20:00,80.2,55.7,30.12,SSE,157,1.1,10.5,43,0.00,,,0.00,WUHU21623XXSP,2013-05-03 16:20:00,
2013-05-03 12:25:00,80.8,56.1,30.12,South,180,4.3,10.5,43,0.00,,,0.00,WUHU21623XXSP,2013-05-03 16:25:00,
2013-05-03 12:30:00,81.7,55.4,30.12,SSE,157,6.0,6.5,41,0.00,,,0.00,WUHU21623XXSP,2013-05-03 16:30:00,
2013-05-03 12:35:00,82.0,55.4,30.12,South,180,8.3,8.9,40,0.00,,,0.00,WUHU21623XXSP,2013-05-03 16:35:00,
2013-05-03 12:40:00,82.4,55.8,30.11,ESE,112,4.7,11.2,40,0.00,,,0.00,WUHU21623XXSP,2013-05-03 16:40:00,
2013-05-03 12:45:00,83.1,55.6,30.11,SE,135,2.7,11.2,39,0.00,,,0.00,WUHU21623XXSP,2013-05-03 16:45:00,
2013-05-03 12:50:00,83.5,55.9,30.11,NNE,22,7.8,10.3,39,0.00,,,0.00,WUHU21623XXSP,2013-05-03 16:50:00,
2013-05-03 12:55:00,83.7,55.3,30.11,ESE,112,6.7,10.3,38,0.00,,,0.00,WUHU21623XXSP,2013-05-03 16:55:00,
2013-05-03 13:00:00,83.8,55.5,30.11,ESE,112,9.8,9.8,38,0.00,,,0.00,WUHU21623XXSP,2013-05-03 17:00:00,
2013-05-03 13:05:00,83.5,55.9,30.11,SE,135,6.7,9.8,39,0.00,,,0.00,WUHU21623XXSP,2013-05-03 17:05:00,
2013-05-03 13:10:00,83.8,55.5,30.11,NNE,22,7.6,10.1,38,0.00,,,0.00,WUHU21623XXSP,2013-05-03 17:10:00,
2013-05-03 13:15:00,83.1,54.8,30.11,SE,135,2.0,11.6,38,0.00,,,0.00,WUHU21623XXSP,2013-05-03 17:15:00,
2013-05-03 13:20:00,82.9,55.5,30.10,SE,135,4.7,11.6,39,0.00,,,0.00,WUHU21623XXSP,2013-05-03 17:20:00,
2013-05-03 13:25:00,82.2,54.8,30.11,SE,135,7.6,7.6,39,0.00,,,0.00,WUHU21623XXSP,2013-05-03 17:25:00,
2013-05-03 13:30:00,81.9,54.5,30.11,ESE,112,7.8,12.8,39,0.00,,,0.00,WUHU21623XXSP,2013-05-03 17:30:00,
2013-05-03 13:35:00,81.3,54.0,30.11,ESE,112,4.3,13.4,39,0.00,,,0.00,WUHU21623XXSP,2013-05-03 17:35:00,
2013-05-03 13:40:00,81.0,55.1,30.11,ESE,112,1.8,13.4,41,0.00,,,0.00,WUHU21623XXSP,2013-05-03 17:40:00,
2013-05-03 13:45:00,79.7,53.9,30.11,NE,45,12.5,12.5,41,0.00,,,0.00,WUHU21623XXSP,2013-05-03 17:45:00,
2013-05-03 13:50:00,79.7,54.6,30.11,NNE,22,4.0,12.5,42,0.00,,,0.00,WUHU21623XXSP,2013-05-03 17:50:00,
2013-05-03 13:55:00,79.7,54.6,30.11,NE,45,8.5,8.5,42,0.00,,,0.00,WUHU21623XXSP,2013-05-03 17:55:00,
2013-05-03 14:00:00,79.7,54.6,30.11,SSE,157,7.8,8.5,42,0.00,,,0.00,WUHU21623XXSP,2013-05-03 18:00:00,
2013-05-03 14:05:00,80.1,54.7,30.11,South,180,8.7,8.7,42,0.00,,,0.00,WUHU21623XXSP,2013-05-03 18:05:00,
2013-05-03 14:10:00,79.9,54.7,30.11,East,90,3.8,8.7,42,0.00,,,0.00,WUHU21623XXSP,2013-05-03 18:10:00,
2013-05-03 14:15:00,79.7,54.6,30.11,South,180,6.5,15.2,42,0.00,,,0.00,WUHU21623XXSP,2013-05-03 18:15:00,
2013-05-03 14:20:00,79.9,54.7,30.10,South,180,11.4,15.2,42,0.00,,,0.00,WUHU21623XXSP,2013-05-03 18:20:00,
2013-05-03 14:25:00,80.4,54.6,30.10,SSE,157,0.7,11.4,41,0.00,,,0.00,WUHU21623XXSP,2013-05-03 18:25:00,
2013-05-03 14:30:00,80.4,55.2,30.11,SE,135,8.3,10.7,42,0.00,,,0.00,WUHU21623XXSP,2013-05-03 18:30:00,
2013-05-03 14:35:00,80.1,54.9,30.11,ESE,112,7.4,10.7,42,0.00,,,0.00,WUHU21623XXSP,2013-05-03 18:35:00,
2013-05-03 14:40:00,79.9,55.3,30.11,South,180,12.1,12.1,43,0.00,,,0.00,WUHU21623XXSP,2013-05-03 18:40:00,
2013-05-03 14:45:00,79.9,55.3,30.11,SE,135,7.2,12.1,42,0.00,,,0.00,WUHU21623XXSP,2013-05-03 18:45:00,
2013-05-03 14:50:00,79.5,54.4,30.11,ESE,112,8.5,8.5,42,0.00,,,0.00,WUHU21623XXSP,2013-05-03 18:50:00,
2013-05-03 14:55:00,79.5,54.4,30.10,ESE,112,10.1,10.1,42,0.00,,,0.00,WUHU21623XXSP,2013-05-03 18:55:00,
2013-05-03 15:00:00,79.3,54.8,30.10,South,180,3.8,10.1,43,0.00,,,0.00,WUHU21623XXSP,2013-05-03 19:00:00,
2013-05-03 15:05:00,79.9,54.1,30.10,SE,135,4.5,8.5,41,0.00,,,0.00,WUHU21623XXSP,2013-05-03 19:05:00,
2013-05-03 15:10:00,79.7,53.9,30.10,ESE,112,12.5,12.5,41,0.00,,,0.00,WUHU21623XXSP,2013-05-03 19:10:00,
2013-05-03 15:15:00,78.6,53.9,30.10,SE,135,7.4,12.5,42,0.00,,,0.00,WUHU21623XXSP,2013-05-03 19:15:00,
2013-05-03 15:20:00,78.1,53.1,30.10,SSE,157,6.0,8.3,42,0.00,,,0.00,WUHU21623XXSP,2013-05-03 19:20:00,
2013-05-03 15:25:00,77.9,53.5,30.10,SE,135,9.4,9.4,43,0.00,,,0.00,WUHU21623XXSP,2013-05-03 19:25:00,
2013-05-03 15:30:00,77.5,53.2,30.10,ESE,112,8.5,9.4,43,0.00,,,0.00,WUHU21623XXSP,2013-05-03 19:30:00,
2013-05-03 15:35:00,77.5,53.2,30.10,NNE,22,17.9,17.9,43,0.00,,,0.00,WUHU21623XXSP,2013-05-03 19:35:00,
2013-05-03 15:40:00,77.4,53.1,30.09,SSE,157,8.3,17.9,43,0.00,,,0.00,WUHU21623XXSP,2013-05-03 19:40:00,
2013-05-03 15:45:00,76.8,52.6,30.09,NE,45,6.7,10.3,43,0.00,,,0.00,WUHU21623XXSP,2013-05-03 19:45:00,
2013-05-03 15:50:00,76.5,52.3,30.09,ENE,67,7.6,8.7,43,0.00,,,0.00,WUHU21623XXSP,2013-05-03 19:50:00,
2013-05-03 15:55:00,75.9,52.4,30.09,ESE,112,6.5,8.7,44,0.00,,,0.00,WUHU21623XXSP,2013-05-03 19:55:00,
2013-05-03 16:00:00,75.9,52.4,30.09,South,180,1.8,6.5,44,0.00,,,0.00,WUHU21623XXSP,2013-05-03 20:00:00,
2013-05-03 16:05:00,76.1,52.5,30.09,East,90,5.1,7.2,44,0.00,,,0.00,WUHU21623XXSP,2013-05-03 20:05:00,
2013-05-03 16:10:00,76.8,52.0,30.09,SE,135,8.9,8.9,42,0.00,,,0.00,WUHU21623XXSP,2013-05-03 20:10:00,
2013-05-03 16:15:00,77.2,52.3,30.09,ESE,112,6.5,8.9,42,0.00,,,0.00,WUHU21623XXSP,2013-05-03 20:15:00,
2013-05-03 16:20:00,77.4,51.8,30.09,SE,135,10.7,10.7,41,0.00,,,0.00,WUHU21623XXSP,2013-05-03 20:20:00,
2013-05-03 16:25:00,77.5,51.4,30.09,East,90,8.3,10.7,40,0.00,,,0.00,WUHU21623XXSP,2013-05-03 20:25:00,
2013-05-03 16:30:00,77.5,52.0,30.08,ENE,67,12.5,12.5,41,0.00,,,0.00,WUHU21623XXSP,2013-05-03 20:30:00,
2013-05-03 16:35:00,77.5,50.6,30.09,East,90,7.4,15.9,39,0.00,,,0.00,WUHU21623XXSP,2013-05-03 20:35:00,
2013-05-03 16:40:00,77.7,50.6,30.09,NE,45,9.8,15.9,39,0.00,,,0.00,WUHU21623XXSP,2013-05-03 20:40:00,
2013-05-03 16:45:00,77.7,51.5,30.09,ESE,112,14.1,14.1,40,0.00,,,0.00,WUHU21623XXSP,2013-05-03 20:45:00,
2013-05-03 16:50:00,77.7,50.0,30.08,ESE,112,6.3,14.1,38,0.00,,,0.00,WUHU21623XXSP,2013-05-03 20:50:00,
2013-05-03 16:55:00,77.5,49.9,30.08,ESE,112,12.8,14.1,38,0.00,,,0.00,WUHU21623XXSP,2013-05-03 20:55:00,
2013-05-03 17:00:00,77.4,49.7,30.08,NNE,22,8.5,12.8,38,0.00,,,0.00,WUHU21623XXSP,2013-05-03 21:00:00,
2013-05-03 17:05:00,77.2,49.5,30.08,East,90,5.6,12.8,38,0.00,,,0.00,WUHU21623XXSP,2013-05-03 21:05:00,
2013-05-03 17:10:00,77.5,49.1,30.08,SE,135,6.7,7.4,37,0.00,,,0.00,WUHU21623XXSP,2013-05-03 21:10:00,
2013-05-03 17:15:00,77.9,49.4,30.08,ESE,112,2.5,7.4,37,0.00,,,0.00,WUHU21623XXSP,2013-05-03 21:15:00,
2013-05-03 17:20:00,77.9,48.7,30.09,SSE,157,6.7,6.9,36,0.00,,,0.00,WUHU21623XXSP,2013-05-03 21:20:00,
2013-05-03 17:25:00,78.1,49.6,30.08,South,180,6.5,6.9,37,0.00,,,0.00,WUHU21623XXSP,2013-05-03 21:25:00,
2013-05-03 17:30:00,78.1,48.8,30.08,NNE,22,8.7,8.7,36,0.00,,,0.00,WUHU21623XXSP,2013-05-03 21:30:00,
2013-05-03 17:35:00,78.1,48.8,30.08,NNE,22,7.4,8.7,36,0.00,,,0.00,WUHU21623XXSP,2013-05-03 21:35:00,
2013-05-03 17:40:00,78.4,48.3,30.08,ENE,67,7.8,7.8,34,0.00,,,0.00,WUHU21623XXSP,2013-05-03 21:40:00,
2013-05-03 17:45:00,78.4,46.0,30.08,NE,45,9.2,11.4,32,0.00,,,0.00,WUHU21623XXSP,2013-05-03 21:45:00,
2013-05-03 17:50:00,77.9,45.6,30.08,NNE,22,11.0,11.4,32,0.00,,,0.00,WUHU21623XXSP,2013-05-03 21:50:00,
2013-05-03 17:55:00,77.7,46.3,30.08,ESE,112,6.9,11.0,32,0.00,,,0.00,WUHU21623XXSP,2013-05-03 21:55:00,
2013-05-03 18:00:00,77.5,44.5,30.08,East,90,8.5,8.7,31,0.00,,,0.00,WUHU21623XXSP,2013-05-03 22:00:00,
2013-05-03 18:05:00,77.2,44.2,30.08,ESE,112,5.1,8.7,31,0.00,,,0.00,WUHU21623XXSP,2013-05-03 22:05:00,
2013-05-03 18:10:00,77.2,44.2,30.08,NNE,22,3.6,8.1,31,0.00,,,0.00,WUHU21623XXSP,2013-05-03 22:10:00,
2013-05-03 18:15:00,77.4,44.4,30.09,South,180,4.5,8.1,31,0.00,,,0.00,WUHU21623XXSP,2013-05-03 22:15:00,
2013-05-03 18:20:00,77.5,43.8,30.08,South,180,6.5,6.7,30,0.00,,,0.00,WUHU21623XXSP,2013-05-03 22:20:00,
2013-05-03 18:25:00,77.7,41.8,30.08,ESE,112,11.6,11.6,28,0.00,,,0.00,WUHU21623XXSP,2013-05-03 22:25:00,
2013-05-03 18:30:00,77.7,41.8,30.08,NNE,22,0.9,11.6,28,0.00,,,0.00,WUHU21623XXSP,2013-05-03 22:30:00,
2013-05-03 18:35:00,77.2,41.4,30.09,NE,45,15.0,15.0,28,0.00,,,0.00,WUHU21623XXSP,2013-05-03 22:35:00,
2013-05-03 18:40:00,76.6,40.9,30.08,SE,135,6.7,15.0,28,0.00,,,0.00,WUHU21623XXSP,2013-05-03 22:40:00,
2013-05-03 18:45:00,76.5,40.8,30.08,NNE,22,2.0,9.6,28,0.00,,,0.00,WUHU21623XXSP,2013-05-03 22:45:00,
2013-05-03 18:50:00,76.3,39.6,30.08,SE,135,8.7,8.7,27,0.00,,,0.00,WUHU21623XXSP,2013-05-03 22:50:00,
2013-05-03 18:55:00,75.7,39.1,30.09,SE,135,10.1,10.1,27,0.00,,,0.00,WUHU21623XXSP,2013-05-03 22:55:00,
2013-05-03 19:00:00,75.4,38.8,30.08,ESE,112,3.4,10.1,27,0.00,,,0.00,WUHU21623XXSP,2013-05-03 23:00:00,
2013-05-03 19:05:00,75.0,39.5,30.09,NNE,22,4.5,7.4,28,0.00,,,0.00,WUHU21623XXSP,2013-05-03 23:05:00,
2013-05-03 19:10:00,74.3,38.9,30.08,SSE,157,5.8,7.4,28,0.00,,,0.00,WUHU21623XXSP,2013-05-03 23:10:00,
2013-05-03 19:15:00,73.8,38.4,30.09,NE,45,0.4,7.4,28,0.00,,,0.00,WUHU21623XXSP,2013-05-03 23:15:00,
2013-05-03 19:20:00,73.4,38.1,30.09,ESE,112,10.5,10.5,28,0.00,,,0.00,WUHU21623XXSP,2013-05-03 23:20:00,
2013-05-03 19:25:00,73.0,37.8,30.09,ESE,112,8.3,10.5,28,0.00,,,0.00,WUHU21623XXSP,2013-05-03 23:25:00,
2013-05-03 19:30:00,72.5,37.3,30.09,SSE,157,4.0,8.3,28,0.00,,,0.00,WUHU21623XXSP,2013-05-03 23:30:00,
2013-05-03 19:35:00,72.3,38.2,30.09,NE,45,0.0,6.7,29,0.00,,,0.00,WUHU21623XXSP,2013-05-03 23:35:00,
2013-05-03 19:40:00,71.8,38.9,30.09,NNE,22,4.3,4.3,29,0.00,,,0.00,WUHU21623XXSP,2013-05-03 23:40:00,
2013-05-03 19:45:00,71.4,37.5,30.09,SSE,157,0.0,8.7,29,0.00,,,0.00,WUHU21623XXSP,2013-05-03 23:45:00,
2013-05-03 19:50:00,71.2,38.3,30.09,NNE,22,0.0,8.7,30,0.00,,,0.00,WUHU21623XXSP,2013-05-03 23:50:00,
2013-05-03 19:55:00,70.5,38.0,30.10,NNE,22,0.0,3.8,30,0.00,,,0.00,WUHU21623XXSP,2013-05-03 23:55:00,
2013-05-03 20:00:00,70.3,37.5,30.09,ENE,67,8.3,8.3,30,0.00,,,0.00,WUHU21623XXSP,2013-05-04 00:00:00,
2013-05-03 20:05:00,70.2,38.1,30.09,NNE,22,0.0,8.3,31,0.00,,,0.00,WUHU21623XXSP,2013-05-04 00:05:00,
2013-05-03 20:10:00,69.6,37.6,30.09,South,180,0.0,5.6,31,0.00,,,0.00,WUHU21623XXSP,2013-05-04 00:10:00,
2013-05-03 20:15:00,69.4,37.5,30.09,NNE,22,3.4,9.4,31,0.00,,,0.00,WUHU21623XXSP,2013-05-04 00:15:00,
2013-05-03 20:20:00,69.1,37.1,30.10,South,180,7.4,9.4,31,0.00,,,0.00,WUHU21623XXSP,2013-05-04 00:20:00,
2013-05-03 20:25:00,68.7,37.5,30.10,NNE,22,5.1,8.1,32,0.00,,,0.00,WUHU21623XXSP,2013-05-04 00:25:00,
2013-05-03 20:30:00,68.5,37.4,30.09,SSE,157,6.0,6.9,32,0.00,,,0.00,WUHU21623XXSP,2013-05-04 00:30:00,
2013-05-03 20:35:00,68.4,37.2,30.09,NNE,22,0.0,6.0,32,0.00,,,0.00,WUHU21623XXSP,2013-05-04 00:35:00,
2013-05-03 20:40:00,67.8,36.7,30.10,NE,45,4.0,6.5,32,0.00,,,0.00,WUHU21623XXSP,2013-05-04 00:40:00,
2013-05-03 20:45:00,67.6,37.3,30.10,South,180,1.8,6.5,33,0.00,,,0.00,WUHU21623XXSP,2013-05-04 00:45:00,
2013-05-03 20:50:00,67.3,37.0,30.09,NNE,22,5.1,5.1,33,0.00,,,0.00,WUHU21623XXSP,2013-05-04 00:50:00,
2013-05-03 20:55:00,67.1,36.9,30.10,South,180,7.6,7.6,33,0.00,,,0.00,WUHU21623XXSP,2013-05-04 00:55:00,
2013-05-03 21:00:00,66.7,37.3,30.10,NNE,22,4.5,7.6,34,0.00,,,0.00,WUHU21623XXSP,2013-05-04 01:00:00,
2013-05-03 21:05:00,66.7,37.3,30.11,NNE,22,0.0,4.5,34,0.00,,,0.00,WUHU21623XXSP,2013-05-04 01:05:00,
2013-05-03 21:10:00,66.4,37.7,30.11,NNE,22,1.8,9.2,35,0.00,,,0.00,WUHU21623XXSP,2013-05-04 01:10:00,
2013-05-03 21:15:00,66.2,37.6,30.11,NNE,22,7.6,9.2,35,0.00,,,0.00,WUHU21623XXSP,2013-05-04 01:15:00,
2013-05-03 21:20:00,66.0,38.1,30.11,NNE,22,2.0,7.6,36,0.00,,,0.00,WUHU21623XXSP,2013-05-04 01:20:00,
2013-05-03 21:25:00,65.8,38.0,30.11,South,180,1.8,3.6,36,0.00,,,0.00,WUHU21623XXSP,2013-05-04 01:25:00,
2013-05-03 21:30:00,65.5,37.7,30.11,South,180,0.0,2.2,36,0.00,,,0.00,WUHU21623XXSP,2013-05-04 01:30:00,
2013-05-03 21:35:00,65.3,38.2,30.11,NNE,22,0.0,2.2,37,0.00,,,0.00,WUHU21623XXSP,2013-05-04 01:35:00,
2013-05-03 21:40:00,65.1,38.8,30.11,South,180,6.0,6.0,38,0.00,,,0.00,WUHU21623XXSP,2013-05-04 01:40:00,
2013-05-03 21:45:00,65.1,38.8,30.11,NE,45,0.0,7.6,38,0.00,,,0.00,WUHU21623XXSP,2013-05-04 01:45:00,
2013-05-03 21:50:00,64.9,38.6,30.11,NE,45,0.0,7.6,38,0.00,,,0.00,WUHU21623XXSP,2013-05-04 01:50:00,
2013-05-03 21:55:00,64.6,39.2,30.11,NNE,22,6.5,6.5,39,0.00,,,0.00,WUHU21623XXSP,2013-05-04 01:55:00,
2013-05-03 22:00:00,64.6,39.0,30.11,SSE,157,0.0,6.5,39,0.00,,,0.00,WUHU21623XXSP,2013-05-04 02:00:00,
2013-05-03 22:05:00,64.2,39.7,30.11,South,180,0.7,2.5,40,0.00,,,0.00,WUHU21623XXSP,2013-05-04 02:05:00,
2013-05-03 22:10:00,64.2,39.4,30.10,NE,45,2.2,2.2,40,0.00,,,0.00,WUHU21623XXSP,2013-05-04 02:10:00,
2013-05-03 22:15:00,64.0,39.8,30.11,NNE,22,1.3,2.2,41,0.00,,,0.00,WUHU21623XXSP,2013-05-04 02:15:00,
2013-05-03 22:20:00,64.0,39.8,30.10,SSE,157,9.2,9.2,41,0.00,,,0.00,WUHU21623XXSP,2013-05-04 02:20:00,
2013-05-03 22:25:00,64.0,39.8,30.11,SE,135,9.4,9.4,41,0.00,,,0.00,WUHU21623XXSP,2013-05-04 02:25:00,
2013-05-03 22:29:00,64.0,40.4,30.11,South,180,3.8,9.4,42,0.00,,,0.00,WUHU21623XXSP,2013-05-04 02:29:00,
2013-05-03 22:34:00,63.7,40.1,30.10,NNE,22,5.4,5.4,42,0.00,,,0.00,WUHU21623XXSP,2013-05-04 02:34:00,
2013-05-03 22:39:00,63.7,40.1,30.11,South,180,2.0,7.2,42,0.00,,,0.00,WUHU21623XXSP,2013-05-04 02:39:00,
2013-05-03 22:44:00,63.5,40.5,30.10,NNE,22,4.7,7.2,43,0.00,,,0.00,WUHU21623XXSP,2013-05-04 02:44:00,
2013-05-03 22:49:00,63.5,40.5,30.11,NNE,22,4.7,5.6,43,0.00,,,0.00,WUHU21623XXSP,2013-05-04 02:49:00,
2013-05-03 22:54:00,63.3,40.3,30.10,SSE,157,5.4,6.5,43,0.00,,,0.00,WUHU21623XXSP,2013-05-04 02:54:00,
2013-05-03 22:59:00,63.3,40.9,30.10,NNE,22,6.0,6.5,44,0.00,,,0.00,WUHU21623XXSP,2013-05-04 02:59:00,
2013-05-03 23:04:00,63.1,40.7,30.10,NNE,22,0.0,6.0,44,0.00,,,0.00,WUHU21623XXSP,2013-05-04 03:04:00,
2013-05-03 23:09:00,63.1,41.3,30.10,NNE,22,4.9,9.6,45,0.00,,,0.00,WUHU21623XXSP,2013-05-04 03:09:00,
2013-05-03 23:14:00,63.0,41.1,30.10,NE,45,0.0,9.6,45,0.00,,,0.00,WUHU21623XXSP,2013-05-04 03:14:00,
2013-05-03 23:19:00,62.8,41.0,30.10,NNE,22,6.9,6.9,45,0.00,,,0.00,WUHU21623XXSP,2013-05-04 03:19:00,
2013-05-03 23:24:00,62.6,40.8,30.10,SSE,157,0.0,6.9,45,0.00,,,0.00,WUHU21623XXSP,2013-05-04 03:24:00,
2013-05-03 23:29:00,62.4,41.2,30.10,NE,45,7.4,8.3,46,0.00,,,0.00,WUHU21623XXSP,2013-05-04 03:29:00,
2013-05-03 23:34:00,62.4,41.2,30.10,South,180,2.2,8.3,46,0.00,,,0.00,WUHU21623XXSP,2013-05-04 03:34:00,
2013-05-03 23:39:00,62.2,41.1,30.10,South,180,5.1,8.3,46,0.00,,,0.00,WUHU21623XXSP,2013-05-04 03:39:00,
2013-05-03 23:44:00,62.2,41.1,30.10,NNE,22,8.5,8.5,46,0.00,,,0.00,WUHU21623XXSP,2013-05-04 03:44:00,
2013-05-03 23:49:00,61.9,40.7,30.10,NE,45,5.4,8.5,46,0.00,,,0.00,WUHU21623XXSP,2013-05-04 03:49:00,
2013-05-03 23:54:00,61.9,40.7,30.10,NNE,22,5.4,8.5,46,0.00,,,0.00,WUHU21623XXSP,2013-05-04 03:54:00,
2013-05-03 23:59:00,61.9,40.7,30.09,SSE,157,1.8,5.4,46,0.00,,,0.00,WUHU21623XXSP,2013-05-04 03:59:00,